Regional Weather Roundup
Issued by NWS

Current Version | Previous Version | Text Only | Print | Product List | Glossary On
Versions: 1 2 3 4 5 6 7 8 9 10 11 12 13 14 15 16 17 18 19 20 21 22 23 24 25 26 27 28 29 30 31 32 33 34 35 36 37 38 39 40 41 42 43 44 45 46 47 48 49 50
000
ASUS43 KMKX 220321
RWRWI

WISCONSIN REGIONAL WEATHER ROUNDUP
NATIONAL WEATHER SERVICE MILWAUKEE/SULLIVAN WI
900 PM CST FRI NOV 21 2014

NOTE: "FAIR" INDICATES FEW OR NO CLOUDS BELOW 12,000 FEET WITH NO
SIGNIFICANT WEATHER AND/OR OBSTRUCTIONS TO VISIBILITY.

WIZ001-002-006>008-014>016-023>028-220400-
NORTHWEST WISCONSIN

CITY           SKY/WX    TMP DP  RH WIND       PRES   REMARKS
SUPERIOR ARPT  PTCLDY    28  20  71 SW15G21   29.81F WCI  16
ASHLAND        PTCLDY    27  15  61 S20G29    29.82F WCI  13
HAYWARD        MOCLDY    25  15  66 S15G24    29.87F WCI  13
SIREN          MOCLDY    28  20  72 SW12G18   29.87F WCI  18
CUMBERLAND     MOCLDY    27  19  74 S12G20    29.89F WCI  16
RICE LAKE      MOCLDY    27  18  70 S12       29.93F WCI  16
CHETEK         MOCLDY    25  16  68 SE7       29.93F WCI  17
LADYSMITH      PTCLDY    25  14  62 S9        29.95F WCI  15
EAU CLAIRE     MOCLDY    28  18  66 S9        29.97F WCI  19
MENOMONIE      MOCLDY    30  21  70 S14G20    29.96F WCI  19
NEW RICHMOND   MOCLDY    28  21  75 S16       29.91F WCI  16
OSCEOLA        MOCLDY    29  22  76 S13       29.93F WCI  18
$$

WIZ003>005-009-010-017-018-220400-
NORTH CENTRAL WISCONSIN

CITY           SKY/WX    TMP DP  RH WIND       PRES   REMARKS
MANITOWISH WTR PTCLDY    24  13  63 S12G18    29.87F WCI  13
ARBOR VITAE    MOCLDY    24  11  58 SW14      29.90F WCI  11
WOODRUFF       MOCLDY    24  11  58 SW14      29.90F WCI  11
RHINELANDER    MOCLDY    23   9  55 SW14G28   29.93F WCI  11
EAGLE RIVER    PTCLDY    23   9  54 SW8       29.90F WCI  14
LAND O LAKES   MOCLDY    24  11  57 SW10G23   29.89F WCI  13
PHILLIPS       MOCLDY    23  11  59 S12G17    29.91F WCI  11
TOMAHAWK       MOCLDY    23  11  60 S5        29.95F WCI  17
MEDFORD        MOCLDY    24  13  62 S12       29.95F WCI  13
MERRILL        MOCLDY    26  11  54 S9G16     29.98F WCI  16
$$

WIZ029-030-035-036-043>047-220400-
CENTRAL WISCONSIN

CITY           SKY/WX    TMP DP  RH WIND       PRES   REMARKS
WAUSAU         CLOUDY    26  11  52 S15       29.99F WCI  14
MOSINEE        MOCLDY    25  12  58 S12G17    30.02F WCI  14
MARSHFIELD     CLOUDY    27  12  53 S12       30.00F WCI  17
STEVENS POINT  CLOUDY    24  10  53 S13       30.04F WCI  13
WAUPACA        CLOUDY    29  11  46 S10       30.08F WCI  20
WAUTOMA        CLOUDY    29  10  44 S9        30.09F WCI  21
WISC RAPIDS    CLOUDY    28   9  44 S12       30.05F WCI  18
CAMP DOUGLAS   CLOUDY    30  13  48 S10       30.05F WCI  21
$$

WIZ011>013-019>022-031-037>040-048>050-220400-
NORTHEAST WISCONSIN

CITY           SKY/WX    TMP DP  RH WIND       PRES   REMARKS
ANTIGO         MOCLDY    23  11  60 S17       29.98F WCI   9
SHAWANO        CLOUDY    29  11  46 SW7       30.06F WCI  22
OCONTO         MOCLDY    29   9  43 SW10G21   30.08F WCI  19
STURGEON BAY   MOCLDY    28   9  43 S15       30.07F WCI  17
GREEN BAY      CLOUDY    29  10  45 S16G22    30.10F WCI  17
MANITOWOC      MOCLDY    30   7  37 SW17      30.14F WCI  18
APPLETON       MOCLDY    27   9  46 S15       30.10F WCI  15
CLINTONVILLE   CLOUDY    28  12  50 S12G17    30.07F WCI  18
OSHKOSH        CLOUDY    28  11  48 S17       30.10F WCI  16
$$

WIZ032>034-041-042-053>061-220400-
SOUTHWEST WISCONSIN

CITY           SKY/WX    TMP DP  RH WIND       PRES   REMARKS
LA CROSSE      CLOUDY    32  16  51 S15       30.05F WCI  22
SPARTA         CLOUDY    31  14  50 SW8G16    30.06F WCI  23
VIROQUA        CLOUDY    30  15  54 S14G21    30.05F WCI  19
BOSCOBEL       CLOUDY    33  12  41 SW7       30.12F WCI  27
PRAIRIE DU CHI CLOUDY    33  13  43 SE6       30.11F WCI  27
PLATTEVILLE    CLOUDY    31  15  49 S8        30.13F WCI  24
$$

WIZ056-057-062-063-064-067-068-220400-
SOUTH CENTRAL WISCONSIN

CITY           SKY/WX    TMP DP  RH WIND       PRES   REMARKS
REEDSBURG      CLOUDY    31  11  43 S13       30.09F WCI  21
BARABOO/DELLS  CLOUDY    31   8  38 S17G24    30.08F WCI  20
LONE ROCK      CLOUDY    35  11  36 S12       30.13F WCI  27
MINERAL POINT  CLOUDY    32  14  47 S12       30.11F WCI  23
MADISON        CLOUDY    31  10  41 S15G26    30.14F WCI  20
MIDDLETON      CLOUDY    32   9  38 S12G21    30.13F WCI  23
WATERTOWN      CLOUDY    29  10  45 S9G21     30.14F WCI  21
MONROE         CLOUDY    32  14  47 S13G22    30.14F WCI  22
JANESVILLE     CLOUDY    32  10  40 S15       30.16F WCI  22
$$

WIZ051-052-058>065-066-070>072-220400-
SOUTHEAST WISCONSIN

CITY           SKY/WX    TMP DP  RH WIND       PRES   REMARKS
MILWAUKEE      CLOUDY    29   6  38 S12       30.19F WCI  19
WAUKESHA       CLOUDY    27   7  43 S9        30.18F WCI  17
MILWAUKEE/TIMM CLOUDY    28   5  37 S12       30.19F WCI  18
RACINE         MOCLDY    30   7  37 S10       30.22F WCI  21
BURLINGTON     CLOUDY    27  10  49 S12       30.18F WCI  17
KENOSHA        MOCLDY    30   8  39 S14       30.20F WCI  19
FOND DU LAC    CLOUDY    29  10  45 S18G26    30.10F WCI  16
SHEBOYGAN      CLOUDY    28   7  41 S15       30.15F WCI  16
WEST BEND      CLOUDY    28   5  37 S10G16    30.15F WCI  19
JUNEAU         CLOUDY    28  10  46 S14G20    30.14F WCI  17
$$

LSZ147-162-220400-
LAKE SUPERIOR

STATION/POSITION TIME  TEMP    WIND        PRES    WAVE
                       AIR SEA DIR/SP/G            HT/PER
                 (UTC) (F)     (DEG/KT/KT) (MB)    (FT/S)
DEVILS ISLAND    0300   32     220/ 21/ 27 1009.3F
PORT WING        0200   28     190/ 18/ 25 1010.5F
SAXON HARBOR     0200   31     190/  9/ 21 1010.5F
$$

LMZ867-665-643>646-220400-
LAKE MICHIGAN

STATION/POSITION TIME  TEMP    WIND        PRES    WAVE
                       AIR SEA DIR/SP/G            HT/PER
                 (UTC) (F)     (DEG/KT/KT) (MB)    (FT/S)
CHAMBERS ISLAND  0200   30     200/ 10/ 28 1019.0F
N MID LAKE BUOY  0250   37 42  210/ 31/ 39 1018.5F  11/ 8
NORTHPORT PIER   0213   31     180/ 10/ 22 1018.6F
SISTER BAY       0243          200/ 20/ 27   N/A
ALGOMA LAKESHORE 0213          240/ 23/ 29   N/A
KEWAUNEE LAKESHO 0300   30     200/ 15/ 19 1019.0F
SHEBOYGAN LAKESH 0300   33 35  200/ 26/ 31 1021.9F
PORT WASHINGTON  0200   31     200/ 11/ 16 1023.4
ATWATER BUOY     0300   31      CALM  /  2 1023.8F
MILWAUKEE LAKESH 0300   31     190/ 15/ 18   N/A
S MID LAKE BUOY  0250   35 43  190/ 25/ 29 1024.7F   6/ 6
KENOSHA   LAKESH 0300   31     200/ 12/ 20 1022.7F
$$

TC  - TEMPERATURE IN CELSIUS
VSB - VISIBILITY IN STATUTE MILES
WCI - WIND CHILL INDEX
HX  - HEAT INDEX



USA.gov is the U.S. government's official web portal to all federal, state and local government web resources and services.